EW6005 Weather Reports


Display with metric or nautical units.
time (UTC)temp
F
wind
direction
speed
MPH
gust
MPH
rain 1hr
in
rain 24hr
in
rain mn
in
humidity
%
barometer
mb
20260905023147 80 0 0.0 2.0 0.00 0.13 0.13 93 999.2
20260905023137 80 0 0.0 2.0 0.00 0.13 0.13 92 999.1
20260905022142 80 0 0.0 0.0 0.00 0.13 0.13 92 999.0
20260905021642 80 0 0.0 0.0 0.00 0.13 0.13 92 998.9
20260905021143 81 0 0.0 0.0 0.00 0.13 0.13 92 998.9
20260905020910 81 0 0.0 1.0 0.00 0.13 0.13 92 998.9
20260905020142 81 193 1.0 3.0 0.00 0.13 0.13 92 998.8
20260905015643 81 0 1.0 3.0 0.00 0.13 0.13 92 998.6
20260905015141 81 0 0.0 3.0 0.00 0.13 0.13 91 998.6
20260905014642 81 0 0.0 3.0 0.00 0.13 0.13 91 998.5
20260905014409 81 69 0.0 0.0 0.00 0.13 0.13 91 998.5
20260905013643 81 69 0.0 0.0 0.00 0.13 0.13 91 998.4
20260905013143 81 69 0.0 0.0 0.00 0.13 0.13 91 998.3
20260905012642 81 0 0.0 0.0 0.00 0.13 0.13 91 998.2
20260905012138 82 68 0.0 0.0 0.00 0.13 0.13 91 998.3
20260905011906 82 68 0.0 0.0 0.00 0.13 0.13 91 998.2
20260905011139 82 67 0.0 0.0 0.00 0.13 0.13 91 998.2
20260905010906 82 69 0.0 0.0 0.00 0.13 0.13 90 998.2
20260905010139 82 68 0.0 0.0 0.00 0.13 0.13 90 998.0
20260905005638 82 67 0.0 0.0 0.00 0.13 0.13 89 998.1
20260905005138 83 69 0.0 0.0 0.00 0.13 0.13 90 998.1
20260905004637 83 67 0.0 0.0 0.00 0.13 0.13 89 998.1
20260905004400 83 68 0.0 0.0 0.00 0.13 0.13 90 998.1
20260905003633 83 68 0.0 0.0 0.00 0.13 0.13 89 997.9
20260905003134 83 66 0.0 0.0 0.00 0.13 0.13 89 997.8
20260905002634 83 68 0.0 0.0 0.00 0.13 0.13 89 997.8
20260905002134 83 67 0.0 0.0 0.00 0.13 0.13 89 997.8
20260905001634 83 69 0.0 0.0 0.00 0.13 0.13 89 997.8
20260905001134 83 67 0.0 0.0 0.00 0.13 0.13 89 997.7
20260905000634 84 65 0.0 0.0 0.00 0.13 0.13 89 997.8
20260905000134 84 67 0.0 0.0 0.00 0.13 0.13 89 997.8
20260904235634 84 69 0.0 0.0 0.00 0.13 0.13 90 997.9
20260904235130 84 68 0.0 0.0 0.00 0.13 0.13 91 997.9
20260904234630 84 67 0.0 0.0 0.00 0.13 0.13 91 997.8
20260904234130 85 66 0.0 1.0 0.00 0.13 0.13 90 997.8
20260904233630 85 66 0.0 1.0 0.00 0.13 0.13 90 997.9
20260904233354 85 67 0.0 1.0 0.00 0.13 0.13 91 997.9
20260904232633 85 67 0.0 2.0 0.00 0.13 0.13 90 997.9
20260904232131 85 67 0.0 2.0 0.00 0.13 0.13 89 997.8
20260904231631 85 0 0.0 0.0 0.00 0.13 0.13 90 997.7
20260904231132 85 184 0.0 0.0 0.00 0.13 0.13 90 997.7
20260904230627 85 0 0.0 0.0 0.00 0.13 0.13 89 997.8
20260904230128 85 184 0.0 0.0 0.00 0.13 0.13 88 997.7
20260904225848 85 208 0.0 0.0 0.00 0.13 0.13 88 997.7
20260904225125 85 0 0.0 0.0 0.00 0.13 0.13 87 997.8
20260904224626 85 0 0.0 0.0 0.00 0.13 0.13 88 997.9
20260904224127 85 0 0.0 0.0 0.00 0.13 0.13 87 997.9
20260904224119 86 0 0.0 0.0 0.00 0.13 0.13 87 997.8
20260904223126 86 0 0.0 0.0 0.00 0.13 0.13 88 997.8
20260904222626 86 0 0.0 0.0 0.00 0.13 0.13 87 997.9
20260904222126 86 0 0.0 0.0 0.00 0.13 0.13 86 998.1
20260904221625 86 0 0.0 0.0 0.00 0.13 0.13 86 998.1
20260904221126 87 0 0.0 0.0 0.00 0.13 0.13 86 998.1
20260904220626 87 208 0.0 0.0 0.00 0.13 0.13 85 998.1
20260904220125 87 208 0.0 2.0 0.00 0.13 0.13 85 998.2
20260904215627 87 208 0.0 2.0 0.00 0.13 0.13 84 998.1
20260904215126 87 173 0.0 2.0 0.00 0.13 0.13 84 998.1
20260904214627 87 171 1.0 3.0 0.00 0.13 0.13 83 998.1
20260904214123 87 171 1.0 3.0 0.00 0.13 0.13 84 998.1
20260904213852 87 169 0.0 2.0 0.00 0.13 0.13 84 998.2
20260904213118 87 190 0.0 2.0 0.00 0.13 0.13 84 998.2
20260904212838 87 154 0.0 1.0 0.00 0.13 0.13 86 998.2
20260904212118 87 148 0.0 2.0 0.00 0.13 0.13 87 998.2
20260904211618 86 198 0.0 4.0 0.00 0.13 0.13 86 998.3
20260904211117 86 210 0.0 4.0 0.00 0.13 0.13 85 998.3
20260904210838 86 225 0.0 1.0 0.00 0.13 0.13 86 998.4
20260904210118 86 221 1.0 4.0 0.00 0.14 0.13 87 998.5
20260904205619 85 221 1.0 4.0 0.00 0.14 0.13 86 998.7
20260904205113 85 192 1.0 6.0 0.00 0.14 0.13 87 998.8
20260904204613 84 198 1.0 6.0 0.00 0.14 0.13 87 999.0
20260904204111 84 80 1.0 5.0 0.00 0.14 0.13 89 999.0
20260904203609 83 178 1.0 5.0 0.00 0.15 0.13 89 999.1
20260904203110 83 188 1.0 4.0 0.00 0.15 0.13 90 999.3
20260904202609 83 186 0.0 1.0 0.00 0.15 0.13 93 999.4
20260904202107 82 186 0.0 2.0 0.00 0.15 0.13 92 999.4
20260904201606 82 191 0.0 2.0 0.00 0.15 0.13 92 999.4
20260904201103 82 198 0.0 0.0 0.00 0.15 0.13 92 999.4
20260904200831 82 198 0.0 0.0 0.00 0.16 0.13 93 999.4
20260904200104 82 198 0.0 0.0 0.00 0.16 0.13 93 999.5
20260904195556 82 183 0.0 1.0 0.00 0.17 0.13 93 999.5
20260904195058 82 198 0.0 1.0 0.00 0.18 0.13 92 999.4
20260904194816 82 198 0.0 1.0 0.00 0.18 0.13 93 999.5
20260904194055 82 176 0.0 1.0 0.00 0.18 0.13 93 999.5
20260904193551 82 176 0.0 1.0 0.00 0.18 0.13 93 999.4
20260904193319 81 176 0.0 1.0 0.00 0.18 0.13 92 999.5
20260904192549 81 176 0.0 2.0 0.00 0.18 0.13 93 999.6
20260904192049 81 176 1.0 3.0 0.00 0.18 0.13 93 999.7
20260904191815 81 182 1.0 3.0 0.00 0.18 0.13 93 999.7
20260904191305 81 207 1.0 3.0 0.00 0.18 0.13 93 999.7
20260904190548 80 127 1.0 4.0 0.02 0.19 0.13 94 999.8
20260904190046 80 0 1.0 4.0 0.09 0.20 0.13 93 1000.0
20260904185807 80 191 1.0 3.0 0.10 0.21 0.13 94 1000.0
20260904185045 80 0 0.0 3.0 0.10 0.26 0.13 93 1000.1
20260904184543 80 170 0.0 2.0 0.10 0.33 0.13 93 1000.4
20260904184042 80 0 0.0 3.0 0.10 0.45 0.13 93 1000.4
20260904183541 80 0 0.0 3.0 0.10 0.49 0.13 92 1000.5
20260904183307 80 186 0.0 1.0 0.10 0.50 0.13 92 1000.7
20260904182801 80 186 0.0 1.0 0.10 0.50 0.13 91 1000.8
20260904182039 80 0 0.0 1.0 0.10 0.50 0.13 90 1000.8
20260904181801 80 0 0.0 2.0 0.10 0.50 0.13 90 1000.8
20260904181035 81 0 1.0 5.0 0.10 0.50 0.13 89 1000.8
20260904180803 82 0 2.0 8.0 0.08 0.48 0.12 87 1000.9
20260904180035 83 0 2.0 8.0 0.01 0.41 0.04 85 1001.0
20260904175531 83 0 2.0 6.0 0.00 0.40 0.03 84 1001.2
20260904175030 84 0 3.0 9.0 0.00 0.40 0.03 83 1001.0
20260904174531 85 0 3.0 9.0 0.00 0.40 0.03 82 1001.3
20260904174029 85 0 2.0 9.0 0.00 0.40 0.03 83 1001.2
20260904173531 85 308 1.0 6.0 0.00 0.40 0.03 84 1000.8
20260904173025 85 231 0.0 6.0 0.00 0.40 0.03 85 1000.8
20260904172749 85 0 0.0 3.0 0.00 0.40 0.03 85 1000.9
20260904172022 85 0 1.0 4.0 0.00 0.40 0.03 85 1001.0
20260904171517 86 0 1.0 4.0 0.00 0.40 0.03 83 1001.1
20260904171017 87 186 1.0 4.0 0.00 0.40 0.03 83 1001.0
20260904170515 88 178 2.0 5.0 0.00 0.40 0.03 84 1001.0
20260904170014 88 196 1.0 5.0 0.00 0.40 0.03 84 1001.1
20260904165513 88 191 1.0 4.0 0.00 0.40 0.03 84 1001.0
20260904165013 88 86 0.0 2.0 0.00 0.40 0.03 89 1000.8
20260904164735 88 153 1.0 4.0 0.00 0.40 0.03 89 1000.8
20260904164010 87 212 1.0 4.0 0.00 0.40 0.03 89 1000.9
20260904163730 87 106 1.0 2.0 0.00 0.40 0.03 91 1000.9
20260904163009 87 320 1.0 2.0 0.00 0.40 0.03 91 1000.9
20260904162509 87 70 1.0 4.0 0.00 0.40 0.03 92 1000.8
20260904162009 87 135 1.0 4.0 0.00 0.40 0.03 92 1000.6
20260904161738 86 40 1.0 3.0 0.00 0.40 0.03 92 1000.5
20260904161009 86 44 1.0 3.0 0.00 0.40 0.03 92 1000.5
20260904160509 86 290 0.0 2.0 0.00 0.40 0.03 93 1000.4
20260904160009 86 11 0.0 2.0 0.00 0.40 0.03 93 1000.4
20260904155726 86 11 0.0 2.0 0.00 0.40 0.03 93 1000.5
20260904155007 86 224 1.0 4.0 0.00 0.40 0.03 93 1000.4
20260904154505 86 221 2.0 5.0 0.00 0.40 0.03 92 1000.4
20260904154005 85 192 2.0 5.0 0.00 0.40 0.03 92 1000.4
20260904153505 85 186 1.0 4.0 0.00 0.40 0.03 95 1000.4
20260904153005 85 175 1.0 4.0 0.00 0.40 0.03 96 1000.4
20260904152951 84 190 1.0 4.0 0.00 0.40 0.03 97 1000.3
20260904152005 84 227 0.0 5.0 0.00 0.40 0.03 98 1000.3
20260904151507 84 189 0.0 5.0 0.00 0.40 0.03 98 1000.4
20260904151007 84 194 1.0 5.0 0.00 0.40 0.03 98 1000.3
20260904150506 83 196 1.0 5.0 0.00 0.40 0.03 98 1000.4
20260904150006 83 74 0.0 1.0 0.01 0.40 0.03 99 1000.4
20260904145729 83 75 0.0 2.0 0.01 0.40 0.03 99 1000.4
20260904145005 83 119 1.0 3.0 0.01 0.40 0.03 99 1000.3
20260904144505 83 84 0.0 3.0 0.01 0.40 0.03 99 1000.4
20260904144226 82 139 0.0 1.0 0.01 0.40 0.03 100 1000.4
20260904143505 82 148 0.0 1.0 0.01 0.40 0.03 100 1000.3
20260904143006 82 195 0.0 2.0 0.01 0.40 0.03 100 1000.3
20260904142505 81 196 0.0 2.0 0.01 0.40 0.03 100 1000.3
20260904142001 81 196 0.0 2.0 0.01 0.40 0.03 100 1000.3
20260904141501 81 0 1.0 2.0 0.01 0.40 0.03 100 1000.3
20260904141222 81 202 1.0 2.0 0.01 0.40 0.03 100 1000.3
20260904140501 81 182 0.0 2.0 0.01 0.40 0.03 100 1000.3
20260904140000 81 182 0.0 2.0 0.00 0.39 0.02 100 1000.2
20260904135501 81 161 1.0 2.0 0.00 0.39 0.02 100 1000.2
20260904135000 81 126 0.0 2.0 0.00 0.39 0.02 100 1000.1
20260904134501 81 128 0.0 1.0 0.00 0.39 0.02 100 1000.0
20260904134002 80 126 0.0 2.0 0.00 0.39 0.02 100 1000.0
20260904133457 80 126 0.0 2.0 0.00 0.39 0.02 100 1000.0
20260904132957 80 209 0.0 0.0 0.00 0.39 0.02 100 1000.0
20260904132939 80 209 0.0 0.0 0.00 0.39 0.02 100 999.9
20260904131957 80 209 0.0 0.0 0.00 0.39 0.02 100 999.9
20260904131458 79 209 0.0 0.0 0.00 0.39 0.02 100 999.9
20260904131215 79 209 0.0 0.0 0.00 0.39 0.02 100 999.9
20260904130457 79 209 0.0 0.0 0.00 0.39 0.02 100 999.8
20260904125956 79 209 0.0 0.0 0.00 0.39 0.02 100 999.8
20260904125457 79 209 0.0 0.0 0.00 0.39 0.02 100 999.8
20260904124953 79 209 0.0 0.0 0.00 0.39 0.02 100 999.7
20260904124453 79 209 0.0 0.0 0.00 0.39 0.02 100 999.6
20260904123954 79 209 0.0 0.0 0.00 0.39 0.02 100 999.6
20260904123453 79 209 0.0 0.0 0.00 0.39 0.02 100 999.5
20260904122953 79 209 0.0 0.0 0.00 0.39 0.02 100 999.4
20260904122712 79 209 0.0 0.0 0.00 0.39 0.02 100 999.3
20260904121953 79 209 0.0 0.0 0.00 0.39 0.02 100 999.3
20260904121452 79 209 0.0 0.0 0.00 0.39 0.02 100 999.3
20260904120953 79 209 0.0 0.0 0.00 0.39 0.02 100 999.2
20260904120453 79 209 0.0 0.0 0.00 0.39 0.02 100 999.1
20260904115952 79 209 0.0 0.0 0.00 0.39 0.02 100 999.1
20260904115452 79 209 0.0 0.0 0.00 0.39 0.02 100 999.1
20260904114953 79 209 0.0 0.0 0.00 0.39 0.02 100 999.2
20260904114453 79 209 0.0 0.0 0.00 0.39 0.02 100 999.2
20260904113954 79 209 0.0 0.0 0.00 0.39 0.02 100 999.2
20260904113721 79 209 0.0 0.0 0.00 0.39 0.02 100 999.2
20260904113217 79 209 0.0 0.0 0.00 0.39 0.02 100 999.1
20260904112454 79 209 0.0 0.0 0.00 0.39 0.02 100 999.1
20260904112436 79 209 0.0 0.0 0.00 0.39 0.02 100 999.1
20260904111454 79 209 0.0 0.0 0.00 0.39 0.02 100 999.0
20260904110953 79 209 0.0 0.0 0.00 0.39 0.02 100 999.0
20260904110453 79 209 0.0 0.0 0.00 0.39 0.02 100 998.9
20260904105952 79 209 0.0 0.0 0.00 0.39 0.02 100 998.9
20260904105451 79 209 0.0 0.0 0.01 0.39 0.02 100 998.9
20260904104953 79 209 0.0 0.0 0.01 0.39 0.02 100 998.8
20260904104448 79 209 0.0 0.0 0.02 0.39 0.02 100 998.7
20260904103946 79 209 0.0 0.0 0.02 0.39 0.02 100 998.7
20260904103441 79 209 0.0 0.0 0.02 0.39 0.02 100 998.7
20260904102940 79 209 0.0 0.0 0.02 0.39 0.02 100 998.7
20260904102704 79 209 0.0 0.0 0.02 0.39 0.02 100 998.7
20260904101937 79 209 0.0 0.0 0.02 0.39 0.02 100 998.7
20260904101656 79 209 0.0 0.0 0.02 0.39 0.02 100 998.7
20260904100935 79 209 0.0 0.0 0.02 0.39 0.02 100 998.7
20260904100432 79 209 0.0 0.0 0.02 0.39 0.02 100 998.6
20260904095932 79 209 0.0 0.0 0.02 0.39 0.02 100 998.6
20260904095430 79 209 0.0 0.0 0.01 0.38 0.02 100 998.6
20260904095153 79 209 0.0 0.0 0.01 0.38 0.01 100 998.6
20260904094424 79 209 0.0 0.0 0.00 0.37 0.00 100 998.5
20260904093924 79 209 0.0 0.0 0.00 0.37 0.00 100 998.5
20260904093424 79 209 0.0 0.0 0.00 0.37 0.00 100 998.5
20260904092924 79 209 0.0 0.0 0.00 0.37 0.00 100 998.5
20260904092420 79 209 0.0 0.0 0.00 0.37 0.00 100 998.4
20260904091919 79 209 0.0 0.0 0.00 0.37 0.00 100 998.4
20260904091416 79 209 0.0 0.0 0.00 0.37 0.00 100 998.3
20260904090916 79 209 0.0 0.0 0.00 0.37 0.00 100 998.3
20260904090413 79 209 0.0 0.0 0.00 0.37 0.00 100 998.3
20260904085911 79 209 0.0 0.0 0.00 0.37 0.00 100 998.3
20260904085635 79 209 0.0 0.0 0.00 0.37 0.00 100 998.3
20260904084909 79 209 0.0 0.0 0.00 0.37 0.00 100 998.3
20260904084407 79 209 0.0 0.0 0.00 0.37 0.00 100 998.3
20260904083904 79 209 0.0 0.0 0.00 0.37 0.00 100 998.3
20260904083402 79 209 0.0 0.0 0.00 0.37 0.00 100 998.3
20260904082859 79 209 0.0 0.0 0.00 0.37 0.00 100 998.2
20260904082358 79 209 0.0 0.0 0.00 0.37 0.00 100 998.2
20260904081857 79 209 0.0 0.0 0.00 0.37 0.00 100 998.3
20260904081356 79 209 0.0 0.0 0.00 0.37 0.00 100 998.4
20260904080856 79 209 0.0 0.0 0.00 0.37 0.00 100 998.4
20260904080356 79 209 0.0 0.0 0.00 0.37 0.00 100 998.4
20260904075857 79 209 0.0 0.0 0.00 0.37 0.00 100 998.4
20260904075353 79 209 0.0 0.0 0.00 0.37 0.00 100 998.4
20260904074852 79 209 0.0 0.0 0.00 0.37 0.00 100 998.5
20260904074352 79 209 0.0 0.0 0.00 0.37 0.00 100 998.5
20260904073849 79 209 0.0 0.0 0.00 0.37 0.00 100 998.5
20260904073348 79 209 0.0 0.0 0.00 0.37 0.00 100 998.6
20260904072849 79 209 0.0 0.0 0.00 0.37 0.00 100 998.7
20260904072349 79 209 0.0 0.0 0.00 0.37 0.00 100 998.8
20260904071849 79 209 0.0 0.0 0.00 0.37 0.00 100 998.9
20260904071612 79 209 0.0 0.0 0.00 0.37 0.00 100 998.9
20260904070850 79 209 0.0 0.0 0.00 0.37 0.00 100 998.9
20260904070348 79 209 0.0 0.0 0.00 0.37 0.00 100 998.9
20260904065848 79 209 0.0 0.0 0.00 0.37 0.00 100 998.9
20260904065349 79 209 0.0 0.0 0.00 0.37 0.00 100 998.9
20260904064850 79 209 0.0 0.0 0.00 0.37 0.00 100 998.9
20260904064348 79 209 0.0 0.0 0.00 0.37 0.00 100 998.8
20260904063848 79 209 0.0 0.0 0.00 0.37 0.00 100 998.8
20260904063348 79 209 0.0 0.0 0.00 0.37 0.00 100 998.8
20260904062849 79 209 0.0 0.0 0.00 0.37 0.00 100 998.8
20260904062612 79 209 0.0 0.0 0.00 0.37 0.00 100 998.8
20260904061848 79 209 0.0 0.0 0.00 0.37 0.00 100 998.7
20260904061614 79 209 0.0 0.0 0.00 0.37 0.00 100 998.7
20260904060848 79 209 0.0 0.0 0.00 0.37 0.00 100 998.8
20260904060830 79 209 0.0 0.0 0.00 0.37 0.00 100 998.9
20260904055848 79 209 0.0 0.0 0.00 0.37 0.00 100 998.9
20260904055348 79 209 0.0 0.0 0.00 0.37 0.00 100 999.0
20260904054850 79 209 0.0 0.0 0.00 0.37 0.00 100 998.9
20260904054613 79 209 0.0 0.0 0.00 0.37 0.00 99 998.9
20260904053850 79 209 0.0 0.0 0.00 0.38 0.00 99 998.8
20260904053349 79 209 0.0 0.0 0.00 0.39 0.00 99 998.7
20260904052848 79 209 0.0 0.0 0.00 0.40 0.00 99 998.7
20260904052348 79 209 0.0 0.0 0.00 0.41 0.00 99 998.7
20260904051848 79 209 0.0 0.0 0.00 0.42 0.00 99 998.8
20260904051349 79 209 0.0 0.0 0.00 0.44 0.00 99 998.8
20260904050848 79 209 0.0 0.0 0.00 0.45 0.00 99 998.7
20260904050348 79 209 0.0 0.0 0.00 0.46 0.00 99 998.7
20260904045845 79 209 0.0 0.0 0.00 0.46 0.46 99 998.8
20260904045344 79 209 0.0 0.0 0.00 0.47 0.46 99 998.7
20260904045104 79 209 0.0 0.0 0.00 0.48 0.46 99 998.7
20260904044345 79 209 0.0 0.0 0.00 0.49 0.46 99 998.8
20260904043844 79 209 0.0 0.0 0.00 0.50 0.46 99 998.7
20260904043345 79 209 0.0 0.0 0.00 0.51 0.46 99 998.7
20260904042845 79 209 0.0 0.0 0.00 0.53 0.46 99 998.7
20260904042344 79 209 0.0 0.0 0.00 0.54 0.46 99 998.7
20260904041846 79 209 0.0 0.0 0.00 0.56 0.46 99 998.7
20260904041826 79 209 0.0 0.0 0.00 0.57 0.46 99 998.7
20260904041104 79 209 0.0 0.0 0.00 0.58 0.46 99 998.7
20260904040343 79 209 0.0 0.0 0.00 0.58 0.46 99 998.8
20260904035844 79 209 0.0 2.0 0.00 0.59 0.46 99 998.8
20260904035342 79 209 1.0 2.0 0.00 0.60 0.46 99 998.7
20260904034842 79 209 0.0 2.0 0.00 0.60 0.46 99 998.7
20260904034338 79 235 0.0 0.0 0.00 0.60 0.46 99 998.8
20260904033840 78 235 0.0 0.0 0.00 0.60 0.46 99 998.7
20260904033336 78 235 0.0 0.0 0.00 0.60 0.46 99 998.7
20260904032836 78 235 0.0 0.0 0.00 0.60 0.46 99 998.7
20260904032557 78 235 0.0 0.0 0.00 0.60 0.46 99 998.7
20260904031833 79 235 0.0 0.0 0.00 0.60 0.46 99 998.8
20260904031332 78 235 0.0 0.0 0.00 0.60 0.46 99 998.7
20260904030830 79 235 0.0 0.0 0.00 0.60 0.46 99 998.7
20260904030549 78 235 0.0 0.0 0.00 0.60 0.46 99 998.8
20260904025829 79 235 0.0 0.0 0.00 0.60 0.46 99 998.8
20260904025331 79 235 0.0 0.0 0.00 0.60 0.46 99 998.8
20260904024825 79 235 0.0 0.0 0.00 0.60 0.46 99 998.6
20260904024548 79 235 0.0 0.0 0.00 0.60 0.46 99 998.5
20260904023825 79 235 0.0 0.0 0.00 0.60 0.46 99 998.5